Regional Weather Roundup
Issued by NWS Charleston, SC

Current Version | Previous Version | Text Only | Print | Product List | Glossary Off
Versions: 1 2 3 4 5 6 7 8 9 10 11 12 13 14 15 16 17 18 19 20 21 22 23 24 25 26 27 28 29 30 31 32 33 34 35 36 37 38 39 40 41 42 43 44 45 46 47 48 49 50

000
ASUS42 KCHS 271326
RWRCHS

REGIONAL WEATHER ROUNDUP
NATIONAL WEATHER SERVICE CHARLESTON SC
800 AM EST FRI FEB 27 2015

NOTE: "FAIR" INDICATES FEW OR NO CLOUDS BELOW 12,000 FEET WITH NO
SIGNIFICANT WEATHER AND/OR OBSTRUCTIONS TO VISIBILITY.

NOT ALL STATIONS ARE QUALITY CONTROLLED BY THE NATIONAL
WEATHER SERVICE. USE DATA WITH CAUTION...ESPECIALLY
DEWPOINT OBSERVATIONS.

SCZ027-030-031-034>040-042>050-271400-
...SOUTHEAST SOUTH CAROLINA...

CITY           SKY/WX    TMP DP  RH WIND       PRES   REMARKS
N CHARLESTON   CLOUDY    36  33  89 NE7       30.32R WCI  30
WATERFRONT PRK   N/A     39 N/A N/A N12         N/A  WCI  32
MOUNT PLEASANT LGT RAIN  37  34  87 CALM      30.33R
PINOPOLIS        N/A     37  34  87 E9        30.23R WCI  31
MONCKS CORNER  FAIR      37  32  81 NE6       30.33R HAZE    WCI  33
SUMMERVILLE    FAIR      36  36 100 NE3       30.34R
BEAUFORT MCAS  CLOUDY    38  35  89 NE7       30.32R WCI  33
BEAUFORT ARPT  FAIR      39  36  87 NE13      30.32R WCI  32
HILTON HEAD IS CLOUDY    39  36  87 N9        30.31R WCI  33
WALTERBORO     CLOUDY    37  36  93 CALM      30.34R
ALLENDALE      FAIR      37  36  93 N3        30.32R

...SOUTHERN MIDLANDS AND PEE DEE...

CITY           SKY/WX    TMP DP  RH WIND       PRES   REMARKS
GEORGETOWN     NOT AVBL
KINGSTREE      NOT AVBL
ORANGEBURG     PTSUNNY   33  31  92 N3        30.32R FOG
BARNWELL         N/A     36  36 100 CALM      30.32R
AIKEN          CLOUDY    37  37 100 NE3       30.33R
MANNING        FAIR     N/A N/A N/A CALM      30.33R HAZE
COLUMBIA       PTSUNNY   37  35  92 CALM      30.31R FOG
SUMTER         MOSUNNY   30  28  93 CALM      30.31R
FLORENCE       MOSUNNY   31  29  92 CALM      30.32R FOG
MYRTLE BEACH   SUNNY     36  30  80 N9        30.34R WCI  29
N MYRTLE BEACH CLOUDY    34  31  88 N5        30.32R WCI  30

$$

GAZ063-065-086>088-099>101-113>116-118-119-134>141-150-271400-
...SOUTHEAST GEORGIA...

CITY           SKY/WX    TMP DP  RH WIND       PRES   REMARKS
SAVANNAH ARPT  CLOUDY    39  35  86 N7        30.31R WCI  34
HUNTER AAF     CLOUDY    40  36  85 N8        30.27R WCI  35
FORT STEWART   CLOUDY    40  37  91 N6        30.28R WCI  35
STATESBORO     CLOUDY    40  40 100 CALM      30.31R
SYLVANIA       CLOUDY    39  38  99 CALM      30.32R
CLAXTON        FAIR      39  39 100 CALM      30.32R

...CSRA...CENTRAL AND FAR SOUTHEAST GEORGIA...

CITY           SKY/WX    TMP DP  RH WIND       PRES   REMARKS
THOMSON        CLOUDY    40  40 100 CALM      30.36R
AUGUSTA-BUSH   CLOUDY    40  37  89 CALM      30.31R
AUGUSTA-DANIEL PTSUNNY   42  37  82 CALM      30.30R
SWAINSBORO     FAIR      37  37 100 CALM      30.33R FOG
VIDALIA        CLOUDY    41  37  87 N3        30.31R
EASTMAN        FAIR      37  37 100 CALM      30.35R
HAZLEHURST     FAIR      42  39  89 N7        30.30R
ALMA           CLOUDY    42  38  85 VRB3      30.31R
WAYCROSS       CLOUDY    47  45  91 NE6       30.29R
JESUP          FAIR      45  41  87 NE5       30.31R
BAXLEY         CLOUDY    43  39  87 NE5       30.31R
BRUNSWICK      CLOUDY    43  37  81 N5        30.30R
SAINT SIMONS   CLOUDY    44  37  76 N8        30.28R

$$

SCZ027-028-034-036>038-045-046-048>050-GAZ119-141-271400-
...LAKE AND SUPPLEMENTAL COASTAL OBSERVATIONS...

STATION/POSITION TIME  TEMP    WIND        PRES    WAVE   SWELL
                       AIR SEA DIR/SP/G            HT/PER HT/PER/DIR
                 (UTC) (F)     (DEG/KT/KT) (MB)    (FT/S) (FT/S/D)
UPR LAKE MARION  NOT AVBL
WINYAH BAY       1245   35     360/  5     1025.0
LAKE MURRAY      1200   37      50/  1/  2 1024.7R
ACE BASIN NERRS  NOT AVBL
FORT PULASKI     1206   41 49   10/  7/  9 1025.1R
SAPELO ISLAND    1300   43      20/  8     1025.0

$$

ANZ835-935-AMZ111-154-330-350-352-354-370-450-454-472-271400-
...C-MAN AND BUOY OBSERVATIONS...

STATION/POSITION TIME  TEMP    WIND        PRES    WAVE   SWELL
                       AIR SEA DIR/SP/G            HT/PER HT/PER/DIR
                 (UTC) (F)     (DEG/KT/KT) (MB)    (FT/S) (FT/S/D)
BUOY 41004       1250   47 65   20/ 16/ 21 1024.6R   5/ 8   3/ 8
BUOY 41008       1250   45 52   30/ 17/ 19 1024.5R   4/ 5   2/110/ 8
FOLLY BEACH CMAN 1300   39      20/ 11/ 14 1026.6R
CAPERS NEARSHORE NOT AVBL
FRIPP NEARSHORE  1200   42      50/ 14/ 17 1023.9R


STATION/POSITION TIME  TEMP    WIND        PRES    WAVE   SWELL
                       AIR SEA DIR/SP/G            HT/PER HT/PER/DIR
                 (UTC) (F)     (DEG/KT/KT) (MB)    (FT/S) (FT/S/D)
5E ST. MARYS GA  1251      53                N/A     4/ 5
FRYING PAN BUOY  1250   44 60   20/ 14/ 17 1025.8R   5/10   5/120/10
BUOY 41025       NOT AVBL
CAPE LOOKOUT NC  1300   34     350/ 12/ 14 1026.2R
BUOY 41002       1250   62 70  340/ 10/ 14 1021.8R   8/ 8   8/230/ 8
BUOY 41010       1220   67 74   40/ 14/ 16 1019.4R
ST AUGUSTINE FL  1300   50      10/ 21/ 25 1023.8R


$$


USA.gov is the U.S. government's official web portal to all federal, state and local government web resources and services.